Location: Marysville Observatory
(48.1092°N, 122.1645°W)
Time: 00:36:32
(UTC-07:00)

ISS - Visible Passes

Search period start: 24 October 2017 00:00
Search period end: 03 November 2017 00:00
Orbit: 400 x 408 km, 51.6° (Epoch: 24 October)

Date Brightness Start Highest point End Pass type
(mag) Time Alt. Az. Time Alt. Az. Time Alt. Az.
29 Oct -0.6 06:29:36 10° SSE 06:30:46 12° SE 06:31:56 10° ESE visible
30 Oct -2.3 07:11:18 10° SW 07:14:20 37° SE 07:17:23 10° ENE visible
31 Oct -1.6 06:19:24 10° SSW 06:22:03 23° SE 06:24:41 10° E visible
01 Nov -1.1 05:29:13 13° SSE 05:29:49 14° SE 05:31:35 10° ESE visible
01 Nov -3.6 07:02:34 10° WSW 07:05:48 71° SSE 07:09:03 10° ENE visible
02 Nov -2.9 06:12:05 27° SSW 06:13:24 44° SSE 06:16:32 10° ENE visible
